Location: Pardubice
(50.0330°N, 15.7830°E)
Time: 14:10:02
(UTC+01:00)

BlueWalker 3 - Visible Passes

Search period start: 13 December 2025 00:00
Search period end: 23 December 2025 00:00
Orbit: 455 x 462 km, 53.2° (Epoch: 12 December)

Date Brightness Start Highest point End Pass type
(mag) Time Alt. Az. Time Alt. Az. Time Alt. Az.
18 Dec 5.3 06:48:40 10° SSE 06:50:04 12° SE 06:51:28 10° ESE visible
21 Dec 3.7 06:38:50 10° SSW 06:42:02 31° SE 06:45:16 10° E visible
22 Dec 4.0 06:04:03 10° SSW 06:07:03 25° SE 06:10:05 10° E visible
